User: anonymous   Login
Location: Fremont
(37.5480°N, 121.9880°W)
Time: 18:36:12
(UTC-08:00)
Language:

Cosmos 1766 - Orbit

View from above orbital plane
View from above orbital plane
View from above satellite
View from above satellite

Ground track
Ground track

The orbit data is extracted from the following two-line orbital elements,

1 16881U 86055A   17052.86932915 +.00000244 +00000-0 +13114-4 0  9990
2 16881 082.5077 136.4963 0016338 133.3673 226.8921 15.09956554642870
Epoch (UTC): 21 February 2017 20:51:50
Eccentricity: 0.0016338
inclination: 82.5077°
perigee height: 525 km
apogee height: 547 km
right ascension of ascending node: 136.4963°
argument of perigee: 133.3673°
revolutions per day: 15.09956554
mean anomaly at epoch: 226.8921°
orbit number at epoch: 64287

The dashed part of the orbit path shows where the satellite is in the earth's shadow,  

DLR